Location: Bothwell
(42.3833°S, 147.0000°E)
Time: 03:26:34
(UTC+11:00)

DIWATA 2B (PO-101) - Pass Details

Date: 04 October 2022
Orbit: 582 x 598 km, 98.0° (Epoch: 30 November)

Event Time Altitude Azimuth Distance (km) Brightness Sun altitude
Rises 02:57:10 0° 147° (SSE) 2,845 ? -36.6°
Reaches altitude 10° 03:00:24 10° 120° (ESE) 1,933 ? -36.2°
Enters shadow 03:01:14 12° 108° (ESE) 1,792 ? -36.1°
